Location: Rounton
(54.4000°N, 1.3500°W)
Time: 13:40:32
(UTC+00:00)

Transit 4A - Pass Details

Date: 05 December 2021
Orbit: 864 x 981 km, 66.8° (Epoch: 18 January)

Event Time Altitude Azimuth Distance (km) Brightness Sun altitude
Rises 01:29:46 0° 311° (NW) 3,570 - -53.4°
Reaches altitude 10° 01:32:28 10° 320° (NW) 2,644 - -53.2°
Maximum altitude 01:38:12 38° 28° (NNE) 1,416 - -52.7°
Drops below altitude 10° 01:44:03 10° 95° (E) 2,706 - -52.1°
Sets 01:46:50 0° 104° (ESE) 3,663 - -51.8°
